This is the latest recevied weather packets stored in our database for station/object HS3UAA-1. If no packets are shown the sender has not sent any weather packets the latest 10 day(s).
| Time | Temp. | Humidity | Pressure | Rain* | Wind** | Luminosity | Snow |
|---|---|---|---|---|---|---|---|
| 1788130437 | 33.33° C | 51% | 995 hPa | - | - | 0 W/m² | - |
| 1788130115 | 33.33° C | 51% | 995 hPa | - | - | 0 W/m² | - |
| 1788129792 | 33.89° C | 51% | 995 hPa | - | - | 0 W/m² | - |
| 1788129470 | 34.44° C | 49% | 995 hPa | - | - | 0 W/m² | - |
| 1788129148 | 34.44° C | 49% | 995 hPa | - | - | 0 W/m² | - |
| 1788128826 | 33.33° C | 51% | 995 hPa | - | - | 0 W/m² | - |
| 1788128504 | 33.89° C | 50% | 995 hPa | - | - | 0 W/m² | - |
| 1788128188 | 34.44° C | 49% | 995 hPa | - | - | 0 W/m² | - |
| 1788127860 | 33.89° C | 50% | 995 hPa | - | - | 0 W/m² | - |
| 1788127538 | 33.89° C | 50% | 995 hPa | - | - | 0 W/m² | - |
| 1788127216 | 34.44° C | 49% | 995 hPa | - | - | 0 W/m² | - |
| 1788126894 | 33.89° C | 50% | 995 hPa | - | - | 0 W/m² | - |
| 1788126572 | 34.44° C | 49% | 995 hPa | - | - | 0 W/m² | - |
| 1788126250 | 35° C | 47% | 995 hPa | - | - | 0 W/m² | - |
| 1788125928 | 33.89° C | 50% | 995 hPa | - | - | 0 W/m² | - |
| 1788125606 | 33.89° C | 50% | 995 hPa | - | - | 0 W/m² | - |
| 1788125284 | 34.44° C | 49% | 995 hPa | - | - | 0 W/m² | - |
| 1788124962 | 33.89° C | 50% | 995 hPa | - | - | 0 W/m² | - |
| 1788124640 | 33.89° C | 50% | 995 hPa | - | - | 0 W/m² | - |
| 1788124318 | 33.89° C | 50% | 995 hPa | - | - | 0 W/m² | - |
| 1788123996 | 34.44° C | 49% | 995 hPa | - | - | 0 W/m² | - |
| 1788123674 | 34.44° C | 49% | 995 hPa | - | - | 0 W/m² | - |
| 1788123352 | 33.89° C | 50% | 995 hPa | - | - | 0 W/m² | - |
| 1788123030 | 35° C | 48% | 995 hPa | - | - | 0 W/m² | - |
| 1788122708 | 33.89° C | 50% | 995 hPa | - | - | 0 W/m² | - |
* Rain since midnight (hover to see other rain measurements)
** Current wind speed in m/s (hover to see current wind gust speed)